| time (UTC) | temp C | wind direction | speed KPH | gust KPH | rain 1hr cm | rain 24hr cm | rain mn cm | humidity % | barometer mb |
| 20260502130207 | 15 | 11 | 0.0 | 1.6 | 0.00 | 0.00 | 0.00 | 39 | 969.7 |
| 20260502123638 | 14 | 11 | 0.0 | 0.0 | 0.00 | 0.00 | 0.00 | 40 | 969.2 |
| 20260502122630 | 14 | 11 | 0.0 | 1.6 | 0.00 | 0.00 | 0.00 | 40 | 969.1 |
| 20260502121627 | 14 | 11 | 0.0 | 1.6 | 0.00 | 0.00 | 0.00 | 41 | 969.1 |
| 20260502121125 | 14 | 11 | 0.0 | 0.0 | 0.00 | 0.00 | 0.00 | 41 | 969.0 |
| 20260502120626 | 14 | 11 | 0.0 | 0.0 | 0.00 | 0.00 | 0.00 | 40 | 968.9 |
| 20260502115623 | 15 | 11 | 0.0 | 0.0 | 0.00 | 0.00 | 0.00 | 39 | 968.9 |
| 20260502115120 | 15 | 11 | 0.0 | 0.0 | 0.00 | 0.00 | 0.00 | 40 | 968.9 |
| 20260502114618 | 15 | 11 | 0.0 | 0.0 | 0.00 | 0.00 | 0.00 | 40 | 968.9 |
| 20260502113615 | 15 | 11 | 0.0 | 0.0 | 0.00 | 0.00 | 0.00 | 39 | 968.7 |
| 20260502113113 | 15 | 11 | 0.0 | 0.0 | 0.00 | 0.00 | 0.00 | 38 | 968.8 |
| 20260502112611 | 15 | 11 | 0.0 | 0.0 | 0.00 | 0.00 | 0.00 | 38 | 968.8 |
| 20260502112107 | 15 | 11 | 0.0 | 0.0 | 0.00 | 0.00 | 0.00 | 38 | 968.9 |
| 20260502111609 | 15 | 120 | 0.0 | 0.0 | 0.00 | 0.00 | 0.00 | 35 | 968.9 |
| 20260502111108 | 15 | 11 | 0.0 | 1.6 | 0.00 | 0.00 | 0.00 | 36 | 968.9 |
| 20260502110607 | 15 | 11 | 1.6 | 3.2 | 0.00 | 0.00 | 0.00 | 34 | 968.9 |
| 20260502110106 | 15 | 11 | 1.6 | 3.2 | 0.00 | 0.00 | 0.00 | 35 | 968.8 |
| 20260502105104 | 16 | 120 | 0.0 | 3.2 | 0.00 | 0.00 | 0.00 | 34 | 968.7 |
| 20260502104604 | 16 | 119 | 0.0 | 3.2 | 0.00 | 0.00 | 0.00 | 34 | 968.6 |
| 20260502104059 | 16 | 119 | 0.0 | 1.6 | 0.00 | 0.00 | 0.00 | 34 | 968.7 |
| 20260502103553 | 16 | 119 | 0.0 | 1.6 | 0.00 | 0.00 | 0.00 | 33 | 968.6 |
| 20260502102541 | 16 | 119 | 0.0 | 1.6 | 0.00 | 0.00 | 0.00 | 33 | 968.5 |
| 20260502102042 | 16 | 119 | 0.0 | 0.0 | 0.00 | 0.00 | 0.00 | 33 | 968.4 |
| 20260502101538 | 16 | 120 | 0.0 | 3.2 | 0.00 | 0.00 | 0.00 | 33 | 968.4 |
| 20260502100538 | 17 | 11 | 0.0 | 0.0 | 0.00 | 0.00 | 0.00 | 30 | 968.4 |
| 20260502090537 | 19 | 11 | 1.6 | 8.0 | 0.00 | 0.00 | 0.00 | 26 | 968.0 |
| 20260502071004 | 17 | 11 | 0.0 | 0.0 | 0.00 | 0.00 | 0.00 | 34 | 967.7 |
| 20260502070458 | 17 | 11 | 0.0 | 0.0 | 0.00 | 0.00 | 0.00 | 36 | 967.8 |
| 20260502065953 | 17 | 11 | 0.0 | 0.0 | 0.00 | 0.00 | 0.00 | 37 | 967.7 |
| 20260502064941 | 17 | 224 | 0.0 | 0.0 | 0.00 | 0.00 | 0.00 | 39 | 967.8 |
| 20260502064435 | 17 | 224 | 0.0 | 0.0 | 0.00 | 0.00 | 0.00 | 39 | 967.9 |
| 20260502063929 | 17 | 224 | 0.0 | 0.0 | 0.00 | 0.00 | 0.00 | 39 | 967.8 |
| 20260502062918 | 17 | 223 | 0.0 | 0.0 | 0.00 | 0.00 | 0.00 | 37 | 967.7 |
| 20260502062411 | 17 | 224 | 0.0 | 0.0 | 0.00 | 0.00 | 0.00 | 36 | 967.7 |
| 20260502061905 | 17 | 223 | 0.0 | 0.0 | 0.00 | 0.00 | 0.00 | 37 | 967.6 |
| 20260502061359 | 17 | 224 | 0.0 | 0.0 | 0.00 | 0.00 | 0.00 | 39 | 967.6 |
| 20260502060854 | 17 | 224 | 0.0 | 0.0 | 0.00 | 0.00 | 0.00 | 39 | 967.6 |
| 20260502060347 | 17 | 271 | 0.0 | 0.0 | 0.00 | 0.00 | 0.00 | 40 | 967.5 |
| 20260502055843 | 17 | 271 | 0.0 | 0.0 | 0.00 | 0.00 | 0.00 | 39 | 967.6 |
| 20260502055337 | 17 | 271 | 0.0 | 0.0 | 0.00 | 0.00 | 0.00 | 40 | 967.5 |
| 20260502054829 | 17 | 271 | 0.0 | 0.0 | 0.00 | 0.00 | 0.00 | 40 | 967.5 |
| 20260502054323 | 17 | 271 | 0.0 | 0.0 | 0.00 | 0.00 | 0.00 | 39 | 967.4 |
| 20260502053311 | 18 | 271 | 0.0 | 0.0 | 0.00 | 0.00 | 0.00 | 38 | 967.4 |
| 20260502052803 | 18 | 271 | 0.0 | 0.0 | 0.00 | 0.00 | 0.00 | 39 | 967.4 |
| 20260502052259 | 18 | 271 | 0.0 | 0.0 | 0.00 | 0.00 | 0.00 | 37 | 967.4 |
| 20260502051753 | 18 | 271 | 0.0 | 0.0 | 0.00 | 0.00 | 0.00 | 34 | 967.4 |
| 20260502051247 | 18 | 271 | 0.0 | 0.0 | 0.00 | 0.00 | 0.00 | 35 | 967.2 |
| 20260502050235 | 18 | 271 | 0.0 | 0.0 | 0.00 | 0.00 | 0.00 | 37 | 967.2 |
| 20260502045730 | 18 | 271 | 0.0 | 0.0 | 0.00 | 0.00 | 0.00 | 37 | 967.1 |
| 20260502045222 | 18 | 271 | 0.0 | 0.0 | 0.00 | 0.00 | 0.00 | 38 | 967.2 |
| 20260502044718 | 18 | 271 | 0.0 | 0.0 | 0.00 | 0.00 | 0.00 | 37 | 967.2 |
| 20260502044211 | 18 | 271 | 0.0 | 0.0 | 0.00 | 0.00 | 0.00 | 35 | 967.2 |
| 20260502043707 | 18 | 271 | 0.0 | 0.0 | 0.00 | 0.00 | 0.00 | 32 | 967.2 |
| 20260502043159 | 18 | 271 | 0.0 | 0.0 | 0.00 | 0.00 | 0.00 | 32 | 967.1 |
| 20260502041641 | 19 | 11 | 0.0 | 0.0 | 0.00 | 0.00 | 0.00 | 32 | 966.9 |
| 20260502040628 | 20 | 11 | 0.0 | 0.0 | 0.00 | 0.00 | 0.00 | 33 | 966.8 |
| 20260502035618 | 20 | 11 | 0.0 | 0.0 | 0.00 | 0.00 | 0.00 | 30 | 966.7 |
| 20260502035111 | 20 | 11 | 0.0 | 0.0 | 0.00 | 0.00 | 0.00 | 27 | 966.7 |
| 20260502034101 | 21 | 11 | 0.0 | 0.0 | 0.00 | 0.00 | 0.00 | 25 | 966.7 |
| 20260502033554 | 21 | 11 | 0.0 | 0.0 | 0.00 | 0.00 | 0.00 | 25 | 966.6 |
| 20260502033047 | 21 | 11 | 0.0 | 0.0 | 0.00 | 0.00 | 0.00 | 25 | 966.5 |
| 20260502032045 | 22 | 11 | 0.0 | 0.0 | 0.00 | 0.00 | 0.00 | 25 | 966.2 |
| 20260502031545 | 22 | 11 | 0.0 | 0.0 | 0.00 | 0.00 | 0.00 | 23 | 966.3 |
| 20260502031045 | 22 | 11 | 0.0 | 0.0 | 0.00 | 0.00 | 0.00 | 22 | 966.2 |
| 20260502030542 | 23 | 11 | 0.0 | 0.0 | 0.00 | 0.00 | 0.00 | 22 | 966.1 |
| 20260502025541 | 23 | 11 | 0.0 | 0.0 | 0.00 | 0.00 | 0.00 | 18 | 966.1 |
| 20260502025045 | 24 | 11 | 0.0 | 0.0 | 0.00 | 0.00 | 0.00 | 17 | 966.1 |
| 20260502024542 | 25 | 11 | 0.0 | 1.6 | 0.00 | 0.00 | 0.00 | 14 | 965.9 |
| 20260502024039 | 25 | 11 | 0.0 | 1.6 | 0.00 | 0.00 | 0.00 | 14 | 965.9 |
| 20260502023540 | 26 | 11 | 0.0 | 1.6 | 0.00 | 0.00 | 0.00 | 14 | 965.9 |
| 20260502023042 | 26 | 11 | 0.0 | 3.2 | 0.00 | 0.00 | 0.00 | 12 | 965.8 |
| 20260502022539 | 26 | 11 | 1.6 | 9.7 | 0.00 | 0.00 | 0.00 | 12 | 965.7 |
| 20260502022038 | 27 | 11 | 3.2 | 9.7 | 0.00 | 0.00 | 0.00 | 10 | 965.6 |
| 20260502021037 | 27 | 11 | 1.6 | 8.0 | 0.00 | 0.00 | 0.00 | 11 | 965.6 |
| 20260502020535 | 28 | 11 | 3.2 | 8.0 | 0.00 | 0.00 | 0.00 | 9 | 965.6 |
| 20260502020032 | 28 | 11 | 3.2 | 8.0 | 0.00 | 0.00 | 0.00 | 9 | 965.6 |
| 20260502015533 | 28 | 253 | 1.6 | 8.0 | 0.00 | 0.00 | 0.00 | 10 | 965.6 |
| 20260502015033 | 28 | 296 | 3.2 | 9.7 | 0.00 | 0.00 | 0.00 | 8 | 965.5 |
| 20260502014032 | 29 | 283 | 3.2 | 9.7 | 0.00 | 0.00 | 0.00 | 10 | 965.4 |
| 20260502013533 | 29 | 320 | 3.2 | 8.0 | 0.00 | 0.00 | 0.00 | 9 | 965.4 |
| 20260502013032 | 30 | 265 | 3.2 | 9.7 | 0.00 | 0.00 | 0.00 | 10 | 965.5 |
| 20260502012532 | 30 | 298 | 3.2 | 9.7 | 0.00 | 0.00 | 0.00 | 8 | 965.5 |
| 20260502012032 | 30 | 298 | 1.6 | 9.7 | 0.00 | 0.00 | 0.00 | 8 | 965.4 |
| 20260502011533 | 30 | 298 | 3.2 | 14.5 | 0.00 | 0.00 | 0.00 | 7 | 965.4 |
| 20260502011033 | 31 | 299 | 4.8 | 14.5 | 0.00 | 0.00 | 0.00 | 8 | 965.5 |
| 20260502010531 | 31 | 299 | 6.4 | 14.5 | 0.00 | 0.00 | 0.00 | 8 | 965.4 |
| 20260502010032 | 31 | 288 | 6.4 | 14.5 | 0.00 | 0.00 | 0.00 | 8 | 965.4 |
| 20260502005531 | 31 | 264 | 4.8 | 12.9 | 0.00 | 0.00 | 0.00 | 8 | 965.5 |
| 20260502004533 | 31 | 231 | 1.6 | 8.0 | 0.00 | 0.00 | 0.00 | 9 | 965.3 |
| 20260502004033 | 31 | 300 | 1.6 | 8.0 | 0.00 | 0.00 | 0.00 | 9 | 965.3 |
| 20260502003532 | 32 | 279 | 3.2 | 11.3 | 0.00 | 0.00 | 0.00 | 11 | 965.3 |
| 20260502003030 | 32 | 316 | 3.2 | 11.3 | 0.00 | 0.00 | 0.00 | 9 | 965.3 |
| 20260502002530 | 32 | 245 | 3.2 | 8.0 | 0.00 | 0.00 | 0.00 | 9 | 965.4 |
| 20260502002022 | 32 | 308 | 3.2 | 8.0 | 0.00 | 0.00 | 0.00 | 8 | 965.4 |
| 20260502001014 | 32 | 218 | 4.8 | 14.5 | 0.00 | 0.00 | 0.00 | 8 | 965.4 |
| 20260502000507 | 32 | 12 | 4.8 | 14.5 | 0.00 | 0.00 | 0.00 | 9 | 965.5 |
| 20260502000001 | 32 | 303 | 8.0 | 16.1 | 0.00 | 0.00 | 0.00 | 9 | 965.5 |
| 20260501235454 | 32 | 290 | 6.4 | 16.1 | 0.00 | 0.00 | 0.00 | 9 | 965.4 |
| 20260501234947 | 31 | 310 | 6.4 | 14.5 | 0.00 | 0.00 | 0.00 | 9 | 965.5 |
| 20260501234443 | 31 | 275 | 6.4 | 16.1 | 0.00 | 0.00 | 0.00 | 9 | 965.5 |
| 20260501233935 | 32 | 288 | 4.8 | 16.1 | 0.00 | 0.00 | 0.00 | 9 | 965.5 |
| 20260501232924 | 32 | 301 | 4.8 | 17.7 | 0.00 | 0.00 | 0.00 | 9 | 965.6 |
| 20260501232418 | 32 | 278 | 4.8 | 12.9 | 0.00 | 0.00 | 0.00 | 10 | 965.6 |
| 20260501231912 | 32 | 342 | 4.8 | 12.9 | 0.00 | 0.00 | 0.00 | 9 | 965.6 |
| 20260501231406 | 32 | 318 | 4.8 | 11.3 | 0.00 | 0.00 | 0.00 | 10 | 965.6 |
| 20260501230354 | 32 | 356 | 6.4 | 17.7 | 0.00 | 0.00 | 0.00 | 12 | 965.7 |
| 20260501225348 | 31 | 235 | 1.6 | 6.4 | 0.00 | 0.00 | 0.00 | 12 | 965.7 |
| 20260501224835 | 31 | 167 | 3.2 | 16.1 | 0.00 | 0.00 | 0.00 | 9 | 965.7 |
| 20260501224330 | 31 | 212 | 4.8 | 16.1 | 0.00 | 0.00 | 0.00 | 10 | 965.8 |
| 20260501223824 | 32 | 335 | 4.8 | 16.1 | 0.00 | 0.00 | 0.00 | 8 | 965.9 |
| 20260501223318 | 32 | 294 | 3.2 | 16.1 | 0.00 | 0.00 | 0.00 | 11 | 966.0 |
| 20260501222306 | 31 | 310 | 4.8 | 12.9 | 0.00 | 0.00 | 0.00 | 8 | 966.1 |
| 20260501221801 | 31 | 270 | 3.2 | 12.9 | 0.00 | 0.00 | 0.00 | 10 | 966.1 |
| 20260501221255 | 31 | 266 | 3.2 | 11.3 | 0.00 | 0.00 | 0.00 | 9 | 966.2 |
| 20260501220746 | 31 | 11 | 3.2 | 11.3 | 0.00 | 0.00 | 0.00 | 11 | 966.2 |
| 20260501220242 | 31 | 11 | 1.6 | 8.0 | 0.00 | 0.00 | 0.00 | 13 | 966.8 |
| 20260501215736 | 31 | 215 | 0.0 | 12.9 | 0.00 | 0.00 | 0.00 | 10 | 966.4 |
| 20260501215230 | 31 | 212 | 1.6 | 12.9 | 0.00 | 0.00 | 0.00 | 10 | 966.5 |
| 20260501214725 | 31 | 228 | 4.8 | 12.9 | 0.00 | 0.00 | 0.00 | 10 | 966.6 |
| 20260501214218 | 31 | 242 | 4.8 | 12.9 | 0.00 | 0.00 | 0.00 | 12 | 966.7 |
| 20260501213711 | 31 | 284 | 4.8 | 12.9 | 0.00 | 0.00 | 0.00 | 11 | 966.7 |
| 20260501212659 | 31 | 299 | 3.2 | 14.5 | 0.00 | 0.00 | 0.00 | 12 | 966.9 |
| 20260501212153 | 30 | 247 | 3.2 | 14.5 | 0.00 | 0.00 | 0.00 | 12 | 966.9 |
| 20260501211142 | 30 | 330 | 3.2 | 12.9 | 0.00 | 0.00 | 0.00 | 15 | 967.1 |
| 20260501210130 | 30 | 172 | 0.0 | 4.8 | 0.00 | 0.00 | 0.00 | 15 | 967.2 |
| 20260501205116 | 30 | 11 | 3.2 | 6.4 | 0.00 | 0.00 | 0.00 | 13 | 967.2 |
| 20260501204106 | 30 | 245 | 6.4 | 16.1 | 0.00 | 0.00 | 0.00 | 13 | 967.4 |
| 20260501203600 | 30 | 318 | 3.2 | 14.5 | 0.00 | 0.00 | 0.00 | 13 | 967.5 |
| 20260501202547 | 29 | 11 | 3.2 | 12.9 | 0.00 | 0.00 | 0.00 | 14 | 967.5 |
| 20260501202043 | 29 | 11 | 1.6 | 12.9 | 0.00 | 0.00 | 0.00 | 18 | 967.5 |
| 20260501201536 | 29 | 11 | 1.6 | 12.9 | 0.00 | 0.00 | 0.00 | 17 | 967.6 |
| 20260501200522 | 29 | 11 | 3.2 | 14.5 | 0.00 | 0.00 | 0.00 | 16 | 967.7 |
| 20260501200019 | 29 | 52 | 4.8 | 14.5 | 0.00 | 0.00 | 0.00 | 13 | 967.7 |
| 20260501195514 | 29 | 11 | 1.6 | 14.5 | 0.00 | 0.00 | 0.00 | 17 | 967.7 |
| 20260501195016 | 29 | 11 | 1.6 | 8.0 | 0.00 | 0.00 | 0.00 | 17 | 967.8 |
| 20260501194515 | 28 | 53 | 1.6 | 8.0 | 0.00 | 0.00 | 0.00 | 17 | 967.8 |
| 20260501194016 | 28 | 45 | 1.6 | 8.0 | 0.00 | 0.00 | 0.00 | 18 | 968.0 |
| 20260501193015 | 27 | 11 | 3.2 | 9.7 | 0.00 | 0.00 | 0.00 | 18 | 968.2 |
| 20260501192514 | 28 | 11 | 1.6 | 11.3 | 0.00 | 0.00 | 0.00 | 18 | 968.2 |
| 20260501192014 | 27 | 290 | 3.2 | 11.3 | 0.00 | 0.00 | 0.00 | 17 | 968.2 |
| 20260501191516 | 27 | 243 | 3.2 | 11.3 | 0.00 | 0.00 | 0.00 | 16 | 968.4 |
| 20260501191013 | 27 | 213 | 1.6 | 8.0 | 0.00 | 0.00 | 0.00 | 19 | 968.4 |
| 20260501190513 | 27 | 131 | 1.6 | 8.0 | 0.00 | 0.00 | 0.00 | 19 | 968.5 |
| 20260501190015 | 27 | 160 | 1.6 | 8.0 | 0.00 | 0.00 | 0.00 | 19 | 968.7 |
| 20260501185513 | 27 | 214 | 0.0 | 8.0 | 0.00 | 0.00 | 0.00 | 18 | 968.8 |
| 20260501184509 | 27 | 133 | 1.6 | 11.3 | 0.00 | 0.00 | 0.00 | 19 | 968.9 |
| 20260501184009 | 27 | 11 | 1.6 | 11.3 | 0.00 | 0.00 | 0.00 | 18 | 968.9 |
| 20260501183510 | 27 | 232 | 3.2 | 11.3 | 0.00 | 0.00 | 0.00 | 17 | 969.0 |
| 20260501183010 | 27 | 11 | 1.6 | 11.3 | 0.00 | 0.00 | 0.00 | 19 | 969.1 |
| 20260501182509 | 27 | 282 | 1.6 | 8.0 | 0.00 | 0.00 | 0.00 | 19 | 969.1 |
| 20260501182011 | 27 | 311 | 1.6 | 8.0 | 0.00 | 0.00 | 0.00 | 19 | 969.2 |
| 20260501181511 | 27 | 302 | 3.2 | 8.0 | 0.00 | 0.00 | 0.00 | 19 | 969.4 |
| 20260501181010 | 27 | 330 | 4.8 | 8.0 | 0.00 | 0.00 | 0.00 | 21 | 969.5 |
| 20260501180006 | 27 | 351 | 3.2 | 8.0 | 0.00 | 0.00 | 0.00 | 21 | 969.6 |
| 20260501175504 | 27 | 82 | 1.6 | 6.4 | 0.00 | 0.00 | 0.00 | 20 | 969.6 |
| 20260501175007 | 26 | 263 | 0.0 | 4.8 | 0.00 | 0.00 | 0.00 | 20 | 969.6 |
| 20260501174002 | 26 | 264 | 3.2 | 8.0 | 0.00 | 0.00 | 0.00 | 20 | 969.7 |
| 20260501173501 | 26 | 288 | 3.2 | 8.0 | 0.00 | 0.00 | 0.00 | 22 | 969.8 |
| 20260501172959 | 26 | 315 | 4.8 | 11.3 | 0.00 | 0.00 | 0.00 | 21 | 969.9 |
| 20260501171456 | 26 | 11 | 0.0 | 6.4 | 0.00 | 0.00 | 0.00 | 25 | 969.8 |
| 20260501170954 | 26 | 301 | 1.6 | 9.7 | 0.00 | 0.00 | 0.00 | 23 | 969.9 |
| 20260501170455 | 25 | 302 | 3.2 | 9.7 | 0.00 | 0.00 | 0.00 | 24 | 969.9 |
| 20260501165952 | 26 | 271 | 4.8 | 11.3 | 0.00 | 0.00 | 0.00 | 25 | 969.8 |
| 20260501165452 | 26 | 286 | 3.2 | 11.3 | 0.00 | 0.00 | 0.00 | 22 | 969.8 |
| 20260501164951 | 25 | 320 | 0.0 | 4.8 | 0.00 | 0.00 | 0.00 | 23 | 969.8 |
| 20260501164451 | 25 | 11 | 0.0 | 4.8 | 0.00 | 0.00 | 0.00 | 22 | 969.8 |
| 20260501163948 | 25 | 261 | 0.0 | 4.8 | 0.00 | 0.00 | 0.00 | 26 | 969.9 |
| 20260501163441 | 25 | 11 | 0.0 | 8.0 | 0.00 | 0.00 | 0.00 | 24 | 969.8 |
| 20260501162934 | 25 | 11 | 1.6 | 8.0 | 0.00 | 0.00 | 0.00 | 25 | 969.8 |
| 20260501162426 | 25 | 313 | 1.6 | 8.0 | 0.00 | 0.00 | 0.00 | 23 | 969.8 |
| 20260501161416 | 25 | 11 | 0.0 | 6.4 | 0.00 | 0.00 | 0.00 | 26 | 969.7 |
| 20260501155857 | 24 | 11 | 1.6 | 6.4 | 0.00 | 0.00 | 0.00 | 26 | 969.8 |
| 20260501155352 | 24 | 11 | 1.6 | 6.4 | 0.00 | 0.00 | 0.00 | 28 | 969.7 |
| 20260501154846 | 23 | 231 | 0.0 | 6.4 | 0.00 | 0.00 | 0.00 | 26 | 969.7 |
| 20260501153835 | 23 | 11 | 0.0 | 4.8 | 0.00 | 0.00 | 0.00 | 30 | 969.6 |
| 20260501153328 | 23 | 11 | 0.0 | 4.8 | 0.00 | 0.00 | 0.00 | 29 | 969.6 |
| 20260501152314 | 23 | 149 | 0.0 | 3.2 | 0.00 | 0.00 | 0.00 | 29 | 969.4 |
| 20260501151810 | 23 | 147 | 0.0 | 3.2 | 0.00 | 0.00 | 0.00 | 29 | 969.3 |
| 20260501150251 | 22 | 126 | 0.0 | 4.8 | 0.00 | 0.00 | 0.00 | 32 | 969.3 |
| 20260501145744 | 22 | 126 | 0.0 | 4.8 | 0.00 | 0.00 | 0.00 | 32 | 969.2 |
| 20260501145239 | 22 | 124 | 1.6 | 6.4 | 0.00 | 0.00 | 0.00 | 34 | 969.1 |
| 20260501144733 | 22 | 124 | 1.6 | 6.4 | 0.00 | 0.00 | 0.00 | 33 | 969.1 |
| 20260501143215 | 21 | 119 | 1.6 | 6.4 | 0.00 | 0.00 | 0.00 | 33 | 968.9 |